Wetterdaten: Samstag, 22.04.2017
Datum Zeit Temp. A. Feuchte A. Luftdruck Regen Wind Richtung Richtung Sonnenschein Helligkeit Solar
22.04.2017 00:00 10,7 C 74 % 1024,8 hPa 0,0 l/m 16,9 km/h (3 Bft) W22.5 265 0 min 0 lux 0 W/m
22.04.2017 00:05 10,7 C 74 % 1024,8 hPa 0,0 l/m 14,9 km/h (3 Bft) W22.5 275 0 min 0 lux 0 W/m
22.04.2017 00:10 10,6 C 75 % 1024,8 hPa 0,0 l/m 14,1 km/h (3 Bft) W22.5 270 0 min 0 lux 0 W/m
22.04.2017 00:15 10,6 C 75 % 1024,8 hPa 0,0 l/m 16,3 km/h (3 Bft) W22.5 270 0 min 0 lux 0 W/m
22.04.2017 00:20 10,6 C 75 % 1024,8 hPa 0,0 l/m 26,2 km/h (4 Bft) W-NW22.5 295 0 min 0 lux 0 W/m
22.04.2017 00:25 10,6 C 75 % 1024,8 hPa 0,0 l/m 29,3 km/h (5 Bft) W-NW45 285 0 min 0 lux 0 W/m
22.04.2017 00:30 10,5 C 76 % 1024,8 hPa 0,0 l/m 23,5 km/h (4 Bft) W-NW22.5 285 0 min 0 lux 0 W/m
22.04.2017 00:35 10,5 C 75 % 1024,8 hPa 0,0 l/m 21,8 km/h (4 Bft) W-NW22.5 285 0 min 0 lux 0 W/m
22.04.2017 00:40 10,5 C 76 % 1024,8 hPa 0,0 l/m 17,3 km/h (3 Bft) W22.5 280 0 min 0 lux 0 W/m
22.04.2017 00:45 10,4 C 76 % 1024,8 hPa 0,0 l/m 15,8 km/h (3 Bft) W22.5 275 0 min 0 lux 0 W/m
22.04.2017 00:49 10,4 C 76 % 1024,8 hPa 0,0 l/m 22,3 km/h (4 Bft) W-NW22.5 285 0 min 0 lux 0 W/m
22.04.2017 00:55 10,5 C 76 % 1023,8 hPa 0,0 l/m 20,3 km/h (4 Bft) W22.5 275 0 min 0 lux 0 W/m
22.04.2017 01:00 10,5 C 76 % 1023,8 hPa 0,0 l/m 18,3 km/h (3 Bft) W22.5 280 0 min 0 lux 0 W/m
22.04.2017 01:05 10,4 C 76 % 1023,8 hPa 0,0 l/m 19,1 km/h (3 Bft) W22.5 275 0 min 0 lux 0 W/m
22.04.2017 01:10 10,4 C 76 % 1023,8 hPa 0,0 l/m 16,0 km/h (3 Bft) W22.5 275 0 min 0 lux 0 W/m
22.04.2017 01:15 10,4 C 77 % 1023,8 hPa 0,0 l/m 14,9 km/h (3 Bft) W22.5 270 0 min 0 lux 0 W/m
22.04.2017 01:20 10,3 C 78 % 1023,8 hPa 0,0 l/m 17,2 km/h (3 Bft) W22.5 260 0 min 0 lux 0 W/m
22.04.2017 01:25 10,2 C 78 % 1023,8 hPa 0,0 l/m 17,0 km/h (3 Bft) W-SW22.5 250 0 min 0 lux 0 W/m
22.04.2017 01:30 10,2 C 78 % 1023,8 hPa 0,0 l/m 16,2 km/h (3 Bft) W-SW22.5 250 0 min 0 lux 0 W/m
22.04.2017 01:35 10,2 C 78 % 1023,8 hPa 0,0 l/m 17,4 km/h (3 Bft) W-SW67.5 250 0 min 0 lux 0 W/m
22.04.2017 01:40 10,2 C 78 % 1023,8 hPa 0,0 l/m 13,9 km/h (3 Bft) W-SW22.5 245 0 min 0 lux 0 W/m
22.04.2017 01:45 10,2 C 78 % 1023,8 hPa 0,0 l/m 17,3 km/h (3 Bft) W22.5 260 0 min 0 lux 0 W/m
22.04.2017 01:50 10,2 C 78 % 1023,8 hPa 0,0 l/m 21,7 km/h (4 Bft) W22.5 270 0 min 0 lux 0 W/m
22.04.2017 01:55 10,2 C 78 % 1023,8 hPa 0,0 l/m 21,0 km/h (4 Bft) W-SW22.5 255 0 min 0 lux 0 W/m
22.04.2017 02:00 10,1 C 78 % 1023,8 hPa 0,0 l/m 18,1 km/h (3 Bft) W22.5 275 0 min 0 lux 0 W/m
22.04.2017 02:05 10,0 C 79 % 1023,8 hPa 0,0 l/m 14,0 km/h (3 Bft) W-SW45 255 0 min 0 lux 0 W/m
22.04.2017 02:10 10,0 C 79 % 1023,8 hPa 0,0 l/m 17,2 km/h (3 Bft) W-SW22.5 255 0 min 0 lux 0 W/m
22.04.2017 02:15 10,0 C 79 % 1023,8 hPa 0,0 l/m 20,2 km/h (4 Bft) W-SW22.5 250 0 min 0 lux 0 W/m
22.04.2017 02:20 9,9 C 80 % 1023,8 hPa 0,0 l/m 14,7 km/h (3 Bft) W-SW45 245 0 min 0 lux 0 W/m
22.04.2017 02:25 9,8 C 81 % 1023,8 hPa 0,0 l/m 18,6 km/h (3 Bft) W22.5 260 0 min 0 lux 0 W/m
22.04.2017 02:30 9,8 C 81 % 1023,8 hPa 0,0 l/m 18,6 km/h (3 Bft) W22.5 260 0 min 0 lux 0 W/m
22.04.2017 02:35 9,8 C 81 % 1022,8 hPa 0,0 l/m 19,5 km/h (3 Bft) W-SW22.5 255 0 min 0 lux 0 W/m
22.04.2017 02:40 9,8 C 81 % 1022,8 hPa 0,0 l/m 17,9 km/h (3 Bft) W-SW45 255 0 min 0 lux 0 W/m
22.04.2017 02:44 9,8 C 81 % 1022,8 hPa 0,0 l/m 17,6 km/h (3 Bft) W 270 0 min 0 lux 0 W/m
22.04.2017 02:50 9,7 C 81 % 1022,8 hPa 0,0 l/m 16,5 km/h (3 Bft) W22.5 275 0 min 0 lux 0 W/m
22.04.2017 02:55 9,7 C 81 % 1022,8 hPa 0,0 l/m 15,8 km/h (3 Bft) W45 270 0 min 0 lux 0 W/m
22.04.2017 03:00 9,7 C 81 % 1022,8 hPa 0,0 l/m 17,9 km/h (3 Bft) W22.5 270 0 min 0 lux 0 W/m
22.04.2017 03:05 9,7 C 81 % 1022,8 hPa 0,0 l/m 16,4 km/h (3 Bft) W22.5 270 0 min 0 lux 0 W/m
22.04.2017 03:10 9,7 C 81 % 1022,8 hPa 0,0 l/m 17,2 km/h (3 Bft) W22.5 280 0 min 0 lux 0 W/m
22.04.2017 03:15 9,8 C 81 % 1022,8 hPa 0,0 l/m 18,6 km/h (3 Bft) W45 270 0 min 0 lux 0 W/m
22.04.2017 03:20 9,8 C 81 % 1022,8 hPa 0,0 l/m 20,7 km/h (4 Bft) W22.5 280 0 min 0 lux 0 W/m
22.04.2017 03:25 9,8 C 81 % 1022,8 hPa 0,0 l/m 19,6 km/h (3 Bft) W22.5 280 0 min 0 lux 0 W/m
22.04.2017 03:30 9,8 C 81 % 1022,8 hPa 0,0 l/m 15,8 km/h (3 Bft) W 270 0 min 0 lux 0 W/m
22.04.2017 03:35 9,8 C 82 % 1022,8 hPa 0,0 l/m 16,8 km/h (3 Bft) W22.5 275 0 min 0 lux 0 W/m
22.04.2017 03:40 9,7 C 81 % 1022,8 hPa 0,0 l/m 17,6 km/h (3 Bft) W22.5 280 0 min 0 lux 0 W/m
22.04.2017 03:45 9,7 C 81 % 1022,8 hPa 0,0 l/m 16,6 km/h (3 Bft) W22.5 275 0 min 0 lux 0 W/m
22.04.2017 03:50 9,6 C 82 % 1022,8 hPa 0,0 l/m 16,4 km/h (3 Bft) W22.5 275 0 min 0 lux 0 W/m
22.04.2017 03:54 9,6 C 82 % 1022,8 hPa 0,0 l/m 18,4 km/h (3 Bft) W22.5 280 0 min 0 lux 0 W/m
22.04.2017 04:00 9,5 C 83 % 1022,8 hPa 0,1 l/m 15,1 km/h (3 Bft) W-NW22.5 285 0 min 0 lux 0 W/m
22.04.2017 04:05 9,4 C 84 % 1022,8 hPa 0,0 l/m 14,7 km/h (3 Bft) W22.5 280 0 min 0 lux 0 W/m
22.04.2017 04:09 9,4 C 84 % 1022,8 hPa 0,0 l/m 21,0 km/h (4 Bft) W22.5 275 0 min 0 lux 0 W/m
22.04.2017 04:15 9,4 C 84 % 1022,8 hPa 0,0 l/m 23,1 km/h (4 Bft) W22.5 280 0 min 0 lux 0 W/m
22.04.2017 04:20 9,4 C 85 % 1022,8 hPa 0,0 l/m 21,3 km/h (4 Bft) W-NW22.5 285 0 min 0 lux 0 W/m
22.04.2017 04:25 9,4 C 85 % 1022,8 hPa 0,0 l/m 25,0 km/h (4 Bft) W-NW22.5 295 0 min 0 lux 0 W/m
22.04.2017 04:30 9,3 C 85 % 1022,8 hPa 0,0 l/m 17,6 km/h (3 Bft) W22.5 275 0 min 0 lux 0 W/m
22.04.2017 04:35 9,3 C 85 % 1022,8 hPa 0,0 l/m 23,3 km/h (4 Bft) W-NW22.5 285 0 min 0 lux 0 W/m
22.04.2017 04:40 9,2 C 85 % 1021,8 hPa 0,0 l/m 20,1 km/h (4 Bft) NW45 305 0 min 0 lux 0 W/m
22.04.2017 04:45 8,6 C 85 % 1022,8 hPa 0,1 l/m 32,0 km/h (5 Bft) N-NW45 335 0 min 0 lux 0 W/m
22.04.2017 04:50 7,7 C 84 % 1022,9 hPa 0,1 l/m 25,8 km/h (4 Bft) N-NW45 345 0 min 0 lux 0 W/m
22.04.2017 04:55 7,5 C 84 % 1022,9 hPa 0,1 l/m 29,5 km/h (5 Bft) N45 355 0 min 0 lux 0 W/m
22.04.2017 05:00 7,2 C 85 % 1022,9 hPa 0,0 l/m 19,2 km/h (3 Bft) N67.5 10 0 min 0 lux 0 W/m
22.04.2017 05:05 7,0 C 85 % 1022,9 hPa 0,0 l/m 28,2 km/h (5 Bft) N-NO45 15 0 min 0 lux 0 W/m
22.04.2017 05:10 6,8 C 85 % 1022,9 hPa 0,0 l/m 14,6 km/h (3 Bft) N45 360 0 min 0 lux 0 W/m
22.04.2017 05:15 6,7 C 85 % 1022,9 hPa 0,1 l/m 19,8 km/h (3 Bft) N22.5 5 0 min 0 lux 0 W/m
22.04.2017 05:20 6,7 C 85 % 1022,9 hPa 0,0 l/m 20,1 km/h (4 Bft) N67.5 355 0 min 0 lux 0 W/m
22.04.2017 05:25 6,7 C 85 % 1022,9 hPa 0,0 l/m 23,5 km/h (4 Bft) N-NO67.5 15 0 min 0 lux 0 W/m
22.04.2017 05:30 6,7 C 85 % 1022,9 hPa 0,0 l/m 19,0 km/h (3 Bft) N-NW67.5 345 0 min 0 lux 0 W/m
22.04.2017 05:35 6,6 C 85 % 1022,9 hPa 0,0 l/m 23,0 km/h (4 Bft) N45 5 0 min 0 lux 0 W/m
22.04.2017 05:40 6,4 C 85 % 1022,9 hPa 0,0 l/m 17,6 km/h (3 Bft) N22.5 5 0 min 0 lux 0 W/m
22.04.2017 05:45 6,4 C 84 % 1022,9 hPa 0,0 l/m 25,1 km/h (4 Bft) N45 5 0 min 0 lux 0 W/m
22.04.2017 05:50 6,2 C 84 % 1023,9 hPa 0,0 l/m 17,1 km/h (3 Bft) N45 10 0 min 0 lux 0 W/m
22.04.2017 05:55 6,1 C 84 % 1023,9 hPa 0,0 l/m 24,5 km/h (4 Bft) N67.5 360 0 min 0 lux 0 W/m
22.04.2017 06:00 6,1 C 84 % 1023,9 hPa 0,1 l/m 19,1 km/h (3 Bft) N45 350 0 min 0 lux 0 W/m
22.04.2017 06:05 6,0 C 84 % 1023,9 hPa 0,0 l/m 25,1 km/h (4 Bft) N67.5 355 0 min 0 lux 0 W/m
22.04.2017 06:10 5,9 C 84 % 1023,9 hPa 0,0 l/m 15,2 km/h (3 Bft) N45 5 0 min 0 lux 0 W/m
22.04.2017 06:15 5,9 C 84 % 1023,9 hPa 0,1 l/m 13,5 km/h (3 Bft) N45 360 0 min 0 lux 0 W/m
22.04.2017 06:20 5,9 C 85 % 1023,9 hPa 0,0 l/m 8,3 km/h (2 Bft) N 355 0 min 0 lux 0 W/m
22.04.2017 06:24 5,9 C 85 % 1023,9 hPa 0,0 l/m 6,1 km/h (2 Bft) N-NO 30 0 min 145 lux 0 W/m
22.04.2017 06:30 5,9 C 85 % 1023,9 hPa 0,1 l/m 5,6 km/h (2 Bft) N22.5 360 0 min 145 lux 1 W/m
22.04.2017 06:35 5,9 C 85 % 1023,9 hPa 0,1 l/m 9,2 km/h (2 Bft) N-NW 345 0 min 145 lux 1 W/m
22.04.2017 06:40 5,8 C 85 % 1023,9 hPa 0,0 l/m 1,7 km/h (1 Bft) N 350 0 min 358 lux 2 W/m
22.04.2017 06:45 5,8 C 85 % 1023,9 hPa 0,0 l/m 8,9 km/h (2 Bft) N45 360 0 min 358 lux 2 W/m
22.04.2017 06:50 5,8 C 85 % 1023,9 hPa 0,0 l/m 10,0 km/h (2 Bft) N-NW22.5 330 0 min 616 lux 4 W/m
22.04.2017 06:55 5,9 C 85 % 1023,9 hPa 0,0 l/m 6,7 km/h (2 Bft) N-NW22.5 340 0 min 782 lux 5 W/m
22.04.2017 07:00 5,9 C 85 % 1023,9 hPa 0,1 l/m 7,6 km/h (2 Bft) NW22.5 315 0 min 782 lux 5 W/m
22.04.2017 07:05 5,9 C 85 % 1023,9 hPa 0,0 l/m 11,5 km/h (2 Bft) N-NW22.5 330 0 min 966 lux 7 W/m
22.04.2017 07:10 6,0 C 85 % 1023,9 hPa 0,0 l/m 8,5 km/h (2 Bft) NW22.5 320 0 min 1,03 klux 7 W/m
22.04.2017 07:15 6,0 C 86 % 1023,9 hPa 0,0 l/m 8,8 km/h (2 Bft) NW22.5 315 0 min 1,19 klux 8 W/m
22.04.2017 07:20 6,0 C 86 % 1023,9 hPa 0,0 l/m 12,4 km/h (2 Bft) W-NW 300 0 min 1,19 klux 8 W/m
22.04.2017 07:25 6,0 C 86 % 1023,9 hPa 0,0 l/m 8,1 km/h (2 Bft) NW22.5 305 0 min 1,19 klux 8 W/m
22.04.2017 07:30 5,9 C 86 % 1023,9 hPa 0,0 l/m 10,3 km/h (2 Bft) W-NW 295 0 min 1,90 klux 13 W/m
22.04.2017 07:35 5,9 C 86 % 1023,9 hPa 0,1 l/m 11,1 km/h (2 Bft) W-NW22.5 290 0 min 1,90 klux 13 W/m
22.04.2017 07:40 5,9 C 86 % 1023,9 hPa 0,0 l/m 12,8 km/h (3 Bft) W22.5 280 0 min 2,48 klux 17 W/m
22.04.2017 07:45 6,0 C 86 % 1023,9 hPa 0,0 l/m 10,7 km/h (2 Bft) W-NW22.5 290 0 min 2,92 klux 20 W/m
22.04.2017 07:50 5,9 C 86 % 1023,9 hPa 0,0 l/m 10,8 km/h (2 Bft) W-NW22.5 285 0 min 4,29 klux 29 W/m
22.04.2017 07:55 6,0 C 86 % 1023,9 hPa 0,0 l/m 12,0 km/h (2 Bft) W-NW22.5 285 0 min 4,13 klux 28 W/m
22.04.2017 08:00 6,0 C 86 % 1023,9 hPa 0,0 l/m 10,2 km/h (2 Bft) W-NW 285 0 min 5,46 klux 37 W/m
22.04.2017 08:05 6,1 C 86 % 1023,9 hPa 0,0 l/m 12,5 km/h (2 Bft) W-NW 300 0 min 7,21 klux 49 W/m
22.04.2017 08:10 6,2 C 86 % 1023,9 hPa 0,0 l/m 12,4 km/h (2 Bft) W-NW22.5 300 0 min 7,21 klux 49 W/m
22.04.2017 08:15 6,2 C 86 % 1023,9 hPa 0,0 l/m 14,0 km/h (3 Bft) W-NW22.5 300 0 min 6,11 klux 42 W/m
22.04.2017 08:20 6,2 C 86 % 1023,9 hPa 0,0 l/m 12,3 km/h (2 Bft) W-NW22.5 300 0 min 6,11 klux 42 W/m
22.04.2017 08:25 6,3 C 86 % 1023,9 hPa 0,0 l/m 13,1 km/h (3 Bft) W-NW22.5 290 0 min 6,42 klux 44 W/m
22.04.2017 08:30 6,4 C 86 % 1023,9 hPa 0,0 l/m 15,8 km/h (3 Bft) W-NW22.5 300 0 min 7,07 klux 48 W/m
22.04.2017 08:35 6,4 C 86 % 1023,9 hPa 0,0 l/m 14,1 km/h (3 Bft) W-NW22.5 295 0 min 9,7 klux 66 W/m
22.04.2017 08:40 6,6 C 86 % 1023,9 hPa 0,0 l/m 12,5 km/h (2 Bft) W-NW22.5 295 0 min 9,7 klux 66 W/m
22.04.2017 08:45 6,6 C 86 % 1023,9 hPa 0,0 l/m 14,3 km/h (3 Bft) W-NW22.5 300 0 min 9,7 klux 66 W/m
22.04.2017 08:50 6,7 C 85 % 1023,9 hPa 0,0 l/m 13,7 km/h (3 Bft) W-NW22.5 290 0 min 12,9 klux 88 W/m
22.04.2017 08:55 6,8 C 85 % 1023,9 hPa 0,0 l/m 14,7 km/h (3 Bft) W-NW22.5 300 0 min 12,9 klux 88 W/m
22.04.2017 09:00 6,9 C 85 % 1023,9 hPa 0,0 l/m 14,1 km/h (3 Bft) W-NW22.5 295 0 min 12,9 klux 88 W/m
22.04.2017 09:05 7,0 C 85 % 1023,9 hPa 0,0 l/m 17,6 km/h (3 Bft) NW22.5 305 0 min 12,9 klux 88 W/m
22.04.2017 09:10 7,1 C 84 % 1023,9 hPa 0,0 l/m 16,3 km/h (3 Bft) NW22.5 310 0 min 24,4 klux 167 W/m
22.04.2017 09:15 7,5 C 84 % 1023,9 hPa 0,0 l/m 13,1 km/h (3 Bft) NW22.5 315 0 min 24,4 klux 167 W/m
22.04.2017 09:20 7,7 C 84 % 1023,9 hPa 0,0 l/m 21,6 km/h (4 Bft) NW22.5 325 0 min 24,4 klux 167 W/m
22.04.2017 09:25 7,9 C 82 % 1023,9 hPa 0,0 l/m 22,2 km/h (4 Bft) NW22.5 325 0 min 24,4 klux 167 W/m
22.04.2017 09:30 7,8 C 79 % 1023,9 hPa 0,0 l/m 25,3 km/h (4 Bft) N-NW45 335 0 min 24,4 klux 167 W/m
22.04.2017 09:35 7,9 C 79 % 1023,9 hPa 0,0 l/m 22,4 km/h (4 Bft) N-NW45 340 0 min 24,4 klux 167 W/m
22.04.2017 09:40 7,9 C 77 % 1023,9 hPa 0,0 l/m 22,4 km/h (4 Bft) N-NW45 340 0 min 24,4 klux 167 W/m
22.04.2017 09:45 8,1 C 76 % 1023,8 hPa 0,0 l/m 19,5 km/h (3 Bft) N-NW67.5 345 0 min 24,4 klux 167 W/m
22.04.2017 09:50 8,2 C 75 % 1023,8 hPa 0,0 l/m 16,7 km/h (3 Bft) N-NW22.5 340 0 min 24,4 klux 167 W/m
22.04.2017 09:55 8,3 C 75 % 1023,8 hPa 0,0 l/m 15,2 km/h (3 Bft) N-NW45 345 0 min 17,6 klux 120 W/m
22.04.2017 10:00 8,3 C 75 % 1023,8 hPa 0,0 l/m 23,5 km/h (4 Bft) N-NW22.5 330 0 min 15,3 klux 105 W/m
22.04.2017 10:05 8,2 C 75 % 1023,8 hPa 0,0 l/m 22,7 km/h (4 Bft) NW22.5 320 0 min 17,0 klux 116 W/m
22.04.2017 10:10 8,2 C 76 % 1023,8 hPa 0,0 l/m 23,6 km/h (4 Bft) NW22.5 325 0 min 17,0 klux 116 W/m
22.04.2017 10:15 8,0 C 75 % 1023,8 hPa 0,0 l/m 27,0 km/h (5 Bft) NW22.5 325 0 min 14,7 klux 101 W/m
22.04.2017 10:20 8,0 C 72 % 1023,8 hPa 0,0 l/m 22,5 km/h (4 Bft) NW22.5 325 0 min 19,0 klux 130 W/m
22.04.2017 10:24 8,3 C 72 % 1023,8 hPa 0,0 l/m 20,0 km/h (4 Bft) NW67.5 315 4 min 65,1 klux 445 W/m
22.04.2017 10:30 8,8 C 70 % 1023,8 hPa 0,0 l/m 16,8 km/h (3 Bft) N-NW67.5 335 6 min 68,5 klux 469 W/m
22.04.2017 10:35 9,5 C 69 % 1023,8 hPa 0,0 l/m 20,1 km/h (4 Bft) N67.5 350 5 min 75,6 klux 517 W/m
22.04.2017 10:40 9,5 C 67 % 1023,8 hPa 0,0 l/m 21,8 km/h (4 Bft) N22.5 355 0 min 23,0 klux 157 W/m
22.04.2017 10:45 9,1 C 66 % 1023,8 hPa 0,0 l/m 21,3 km/h (4 Bft) N22.5 360 0 min 9,2 klux 63 W/m
22.04.2017 10:49 8,7 C 69 % 1023,8 hPa 0,0 l/m 22,8 km/h (4 Bft) NW22.5 315 0 min 9,4 klux 64 W/m
22.04.2017 10:55 8,5 C 70 % 1024,8 hPa 0,0 l/m 25,6 km/h (4 Bft) N-NW22.5 330 0 min 22,1 klux 151 W/m
22.04.2017 11:00 8,6 C 70 % 1024,8 hPa 0,0 l/m 16,5 km/h (3 Bft) NW45 325 0 min 23,3 klux 159 W/m
22.04.2017 11:04 8,7 C 69 % 1024,8 hPa 0,0 l/m 18,0 km/h (3 Bft) NW22.5 325 0 min 21,2 klux 145 W/m
22.04.2017 11:10 8,8 C 68 % 1024,8 hPa 0,0 l/m 26,5 km/h (4 Bft) NW22.5 325 0 min 18,3 klux 125 W/m
22.04.2017 11:15 8,7 C 68 % 1024,8 hPa 0,0 l/m 24,3 km/h (4 Bft) NW22.5 325 0 min 38,0 klux 260 W/m
22.04.2017 11:20 8,9 C 68 % 1024,8 hPa 0,0 l/m 23,1 km/h (4 Bft) N-NW22.5 345 5 min 89,9 klux 615 W/m
22.04.2017 11:25 9,5 C 67 % 1024,8 hPa 0,0 l/m 23,6 km/h (4 Bft) NW22.5 315 0 min 51,0 klux 349 W/m
22.04.2017 11:29 9,4 C 67 % 1024,8 hPa 0,0 l/m 25,6 km/h (4 Bft) NW22.5 315 0 min 39,5 klux 270 W/m
22.04.2017 11:35 9,3 C 67 % 1024,8 hPa 0,0 l/m 45,6 km/h (6 Bft) N45 350 0 min 19,0 klux 130 W/m
22.04.2017 11:40 7,6 C 71 % 1024,9 hPa 0,0 l/m 40,2 km/h (6 Bft) N-NO67.5 15 0 min 18,5 klux 127 W/m
22.04.2017 11:45 7,3 C 73 % 1024,9 hPa 0,0 l/m 26,6 km/h (4 Bft) N67.5 5 0 min 25,1 klux 172 W/m
22.04.2017 11:50 7,2 C 73 % 1024,9 hPa 0,0 l/m 23,7 km/h (4 Bft) N22.5 360 0 min 18,0 klux 123 W/m
22.04.2017 11:54 7,3 C 74 % 1024,9 hPa 0,0 l/m 15,0 km/h (3 Bft) N45 360 0 min 18,1 klux 124 W/m
22.04.2017 12:00 7,4 C 73 % 1024,9 hPa 0,0 l/m 13,8 km/h (3 Bft) N22.5 350 0 min 24,7 klux 169 W/m
22.04.2017 12:05 7,6 C 73 % 1024,9 hPa 0,0 l/m 15,5 km/h (3 Bft) N45 360 0 min 33,9 klux 232 W/m
22.04.2017 12:10 7,9 C 71 % 1024,9 hPa 0,0 l/m 16,2 km/h (3 Bft) N22.5 350 0 min 39,9 klux 273 W/m
22.04.2017 12:15 8,4 C 68 % 1024,8 hPa 0,0 l/m 23,8 km/h (4 Bft) N-NW22.5 345 0 min 39,7 klux 272 W/m
22.04.2017 12:20 8,5 C 66 % 1024,8 hPa 0,0 l/m 17,6 km/h (3 Bft) N45 5 0 min 45,4 klux 311 W/m
22.04.2017 12:25 9,1 C 66 % 1024,8 hPa 0,0 l/m 26,4 km/h (4 Bft) N-NW45 340 0 min 38,0 klux 260 W/m
22.04.2017 12:30 9,7 C 62 % 1024,8 hPa 0,0 l/m 36,4 km/h (5 Bft) N-NW45 335 0 min 47,5 klux 325 W/m
22.04.2017 12:35 9,5 C 60 % 1024,8 hPa 0,0 l/m 36,0 km/h (5 Bft) N-NW45 335 0 min 38,5 klux 263 W/m
22.04.2017 12:40 9,2 C 62 % 1024,8 hPa 0,0 l/m 21,6 km/h (4 Bft) NW22.5 320 0 min 28,3 klux 194 W/m
22.04.2017 12:45 9,3 C 64 % 1024,8 hPa 0,0 l/m 21,8 km/h (4 Bft) N-NW22.5 330 5 min 94,2 klux 644 W/m
22.04.2017 12:50 10,0 C 62 % 1024,8 hPa 0,0 l/m 19,0 km/h (3 Bft) NW22.5 325 5 min 89,1 klux 609 W/m
22.04.2017 12:55 10,1 C 60 % 1024,8 hPa 0,0 l/m 21,1 km/h (4 Bft) N-NW22.5 330 5 min 83,2 klux 569 W/m
22.04.2017 13:00 10,3 C 59 % 1024,8 hPa 0,0 l/m 23,2 km/h (4 Bft) N-NW45 340 5 min 89,9 klux 615 W/m
22.04.2017 13:05 10,8 C 60 % 1023,8 hPa 0,0 l/m 24,0 km/h (4 Bft) N67.5 350 5 min 70,2 klux 480 W/m
22.04.2017 13:10 10,9 C 58 % 1023,8 hPa 0,0 l/m 20,7 km/h (4 Bft) N45 355 5 min 94,2 klux 644 W/m
22.04.2017 13:15 10,7 C 58 % 1023,8 hPa 0,0 l/m 29,3 km/h (5 Bft) N-NW67.5 340 5 min 92,0 klux 629 W/m
22.04.2017 13:20 11,0 C 58 % 1023,8 hPa 0,0 l/m 21,8 km/h (4 Bft) N-NW22.5 340 0 min 41,5 klux 284 W/m
22.04.2017 13:25 11,1 C 58 % 1023,8 hPa 0,0 l/m 22,8 km/h (4 Bft) N-NW67.5 330 5 min 82,9 klux 567 W/m
22.04.2017 13:30 11,0 C 57 % 1023,8 hPa 0,0 l/m 23,3 km/h (4 Bft) N-NW22.5 335 0 min 29,5 klux 202 W/m
22.04.2017 13:35 10,3 C 59 % 1023,8 hPa 0,0 l/m 26,3 km/h (4 Bft) N-NW22.5 330 0 min 28,3 klux 194 W/m
22.04.2017 13:40 10,6 C 61 % 1023,8 hPa 0,0 l/m 24,9 km/h (4 Bft) NW22.5 325 5 min 101 klux 691 W/m
22.04.2017 13:45 11,0 C 60 % 1023,8 hPa 0,0 l/m 23,9 km/h (4 Bft) N-NW22.5 335 5 min 79,5 klux 544 W/m
22.04.2017 13:50 11,2 C 55 % 1023,8 hPa 0,0 l/m 37,7 km/h (5 Bft) N-NW22.5 330 0 min 28,2 klux 193 W/m
22.04.2017 13:55 10,8 C 57 % 1023,8 hPa 0,0 l/m 31,5 km/h (5 Bft) N-NW67.5 345 0 min 22,6 klux 155 W/m
22.04.2017 13:59 10,5 C 58 % 1023,8 hPa 0,0 l/m 24,8 km/h (4 Bft) NW45 320 0 min 22,6 klux 155 W/m
22.04.2017 14:05 10,4 C 58 % 1023,8 hPa 0,0 l/m 27,1 km/h (5 Bft) N-NO67.5 15 0 min 11,2 klux 77 W/m
22.04.2017 14:10 10,0 C 60 % 1023,8 hPa 0,0 l/m 31,6 km/h (5 Bft) N45 10 0 min 8,54 klux 58 W/m
22.04.2017 14:15 9,8 C 60 % 1023,8 hPa 0,0 l/m 18,5 km/h (3 Bft) N45 350 0 min 11,2 klux 77 W/m
22.04.2017 14:20 9,7 C 60 % 1023,8 hPa 0,0 l/m 18,0 km/h (3 Bft) N67.5 350 0 min 11,2 klux 77 W/m
22.04.2017 14:25 9,6 C 60 % 1023,8 hPa 0,0 l/m 22,4 km/h (4 Bft) N67.5 360 0 min 11,2 klux 77 W/m
22.04.2017 14:30 9,5 C 60 % 1023,8 hPa 0,0 l/m 22,7 km/h (4 Bft) N-NW45 340 0 min 21,4 klux 146 W/m
22.04.2017 14:35 9,6 C 61 % 1023,8 hPa 0,0 l/m 14,0 km/h (3 Bft) N67.5 360 0 min 21,4 klux 146 W/m
22.04.2017 14:39 9,8 C 61 % 1023,8 hPa 0,0 l/m 17,8 km/h (3 Bft) N67.5 5 0 min 28,5 klux 195 W/m
22.04.2017 14:45 10,1 C 60 % 1023,8 hPa 0,0 l/m 20,0 km/h (4 Bft) N67.5 350 6 min 79,9 klux 547 W/m
22.04.2017 14:50 10,4 C 61 % 1023,8 hPa 0,0 l/m 24,6 km/h (4 Bft) N-NW22.5 330 5 min 90,0 klux 616 W/m
22.04.2017 14:55 10,8 C 59 % 1023,8 hPa 0,0 l/m 32,7 km/h (5 Bft) N-NW45 330 0 min 46,4 klux 317 W/m
22.04.2017 15:00 10,8 C 58 % 1023,8 hPa 0,0 l/m 26,3 km/h (4 Bft) N-NW22.5 330 5 min 107 klux 732 W/m
22.04.2017 15:05 11,0 C 58 % 1023,8 hPa 0,0 l/m 22,4 km/h (4 Bft) NW22.5 325 0 min 50,5 klux 345 W/m
22.04.2017 15:10 11,2 C 55 % 1023,8 hPa 0,0 l/m 23,8 km/h (4 Bft) N45 355 5 min 110 klux 752 W/m
22.04.2017 15:15 10,9 C 56 % 1023,8 hPa 0,0 l/m 29,5 km/h (5 Bft) NW22.5 325 5 min 110 klux 752 W/m
22.04.2017 15:19 10,9 C 56 % 1023,8 hPa 0,0 l/m 27,1 km/h (5 Bft) NW22.5 325 0 min 41,0 klux 280 W/m
22.04.2017 15:20 10,9 C 56 % 1023,8 hPa 0,0 l/m 27,1 km/h (5 Bft) NW22.5 325 0 min 41,0 klux 280 W/m
22.04.2017 15:25 11,0 C 57 % 1023,8 hPa 0,0 l/m 22,1 km/h (4 Bft) NW22.5 320 0 min 49,5 klux 339 W/m
22.04.2017 15:30 11,2 C 55 % 1023,8 hPa 0,0 l/m 26,0 km/h (4 Bft) NW22.5 325 0 min 36,6 klux 250 W/m
22.04.2017 15:35 10,8 C 53 % 1023,8 hPa 0,0 l/m 32,4 km/h (5 Bft) N-NW22.5 340 0 min 36,6 klux 250 W/m
22.04.2017 15:40 10,8 C 54 % 1023,8 hPa 0,0 l/m 27,8 km/h (5 Bft) N-NW22.5 330 0 min 43,9 klux 300 W/m
22.04.2017 15:45 11,1 C 56 % 1023,8 hPa 0,0 l/m 22,8 km/h (4 Bft) N-NW22.5 330 0 min 43,9 klux 300 W/m
22.04.2017 15:49 11,0 C 55 % 1023,8 hPa 0,0 l/m 30,1 km/h (5 Bft) N-NW22.5 330 0 min 35,3 klux 241 W/m
22.04.2017 15:55 10,8 C 55 % 1022,8 hPa 0,0 l/m 29,5 km/h (5 Bft) N-NW22.5 330 0 min 35,3 klux 241 W/m
22.04.2017 16:00 10,7 C 56 % 1022,8 hPa 0,0 l/m 24,3 km/h (4 Bft) N-NW45 335 0 min 26,9 klux 184 W/m
22.04.2017 16:04 10,7 C 56 % 1022,8 hPa 0,0 l/m 24,8 km/h (4 Bft) NW22.5 320 0 min 26,9 klux 184 W/m
22.04.2017 16:10 10,6 C 55 % 1022,8 hPa 0,0 l/m 29,5 km/h (5 Bft) N-NW22.5 335 0 min 26,9 klux 184 W/m
22.04.2017 16:15 10,6 C 58 % 1022,8 hPa 0,0 l/m 29,5 km/h (5 Bft) N-NW22.5 330 0 min 26,9 klux 184 W/m
22.04.2017 16:20 10,8 C 58 % 1022,8 hPa 0,0 l/m 24,6 km/h (4 Bft) N-NW22.5 330 0 min 26,9 klux 184 W/m
22.04.2017 16:25 10,6 C 57 % 1022,8 hPa 0,0 l/m 29,1 km/h (5 Bft) NW22.5 325 0 min 23,7 klux 162 W/m
22.04.2017 16:29 10,4 C 56 % 1022,8 hPa 0,0 l/m 31,6 km/h (5 Bft) N-NW45 330 0 min 25,1 klux 172 W/m
22.04.2017 16:35 10,4 C 56 % 1022,8 hPa 0,0 l/m 24,6 km/h (4 Bft) N-NW45 335 0 min 25,1 klux 172 W/m
22.04.2017 16:40 10,2 C 57 % 1022,8 hPa 0,0 l/m 24,1 km/h (4 Bft) N-NW22.5 330 0 min 25,1 klux 172 W/m
22.04.2017 16:45 10,2 C 57 % 1022,8 hPa 0,0 l/m 26,3 km/h (4 Bft) N-NW22.5 330 0 min 7,93 klux 54 W/m
22.04.2017 16:50 10,1 C 58 % 1022,8 hPa 0,0 l/m 25,0 km/h (4 Bft) N-NW45 330 0 min 13,0 klux 89 W/m
22.04.2017 16:54 10,1 C 58 % 1022,8 hPa 0,0 l/m 30,0 km/h (5 Bft) N-NW22.5 335 0 min 20,4 klux 140 W/m
22.04.2017 17:00 10,2 C 58 % 1022,8 hPa 0,0 l/m 24,0 km/h (4 Bft) N-NW45 340 0 min 16,5 klux 113 W/m
22.04.2017 17:05 10,2 C 58 % 1022,8 hPa 0,0 l/m 28,0 km/h (5 Bft) NW22.5 325 0 min 13,0 klux 89 W/m
22.04.2017 17:09 10,0 C 58 % 1022,8 hPa 0,0 l/m 21,4 km/h (4 Bft) N-NW22.5 330 0 min 14,7 klux 101 W/m
22.04.2017 17:15 10,1 C 58 % 1022,8 hPa 0,0 l/m 22,0 km/h (4 Bft) N-NW45 330 0 min 27,9 klux 191 W/m
22.04.2017 17:20 10,3 C 58 % 1022,8 hPa 0,0 l/m 28,1 km/h (5 Bft) NW45 315 0 min 22,5 klux 154 W/m
22.04.2017 17:25 9,9 C 59 % 1022,8 hPa 0,0 l/m 26,6 km/h (4 Bft) NW22.5 310 0 min 15,5 klux 106 W/m
22.04.2017 17:30 9,9 C 60 % 1022,8 hPa 0,0 l/m 28,1 km/h (5 Bft) NW45 310 0 min 15,5 klux 106 W/m
22.04.2017 17:35 9,7 C 60 % 1022,8 hPa 0,0 l/m 24,4 km/h (4 Bft) NW22.5 315 0 min 6,01 klux 41 W/m
22.04.2017 17:40 9,6 C 59 % 1022,8 hPa 0,0 l/m 24,3 km/h (4 Bft) N-NW22.5 330 0 min 5,54 klux 38 W/m
22.04.2017 17:45 9,7 C 58 % 1022,8 hPa 0,0 l/m 24,1 km/h (4 Bft) N-NW22.5 330 0 min 16,6 klux 114 W/m
22.04.2017 17:50 9,9 C 57 % 1022,8 hPa 0,0 l/m 28,0 km/h (5 Bft) N-NW45 335 0 min 20,9 klux 143 W/m
22.04.2017 17:55 9,7 C 56 % 1022,8 hPa 0,0 l/m 29,5 km/h (5 Bft) N-NW22.5 330 0 min 18,7 klux 128 W/m
22.04.2017 18:00 9,8 C 57 % 1022,8 hPa 0,0 l/m 19,8 km/h (3 Bft) NW22.5 325 0 min 17,5 klux 120 W/m
22.04.2017 18:05 9,9 C 57 % 1022,8 hPa 0,0 l/m 22,8 km/h (4 Bft) NW22.5 320 0 min 19,5 klux 133 W/m
22.04.2017 18:10 10,0 C 57 % 1022,8 hPa 0,0 l/m 26,6 km/h (4 Bft) N-NW22.5 330 5 min 40,3 klux 276 W/m
22.04.2017 18:14 10,2 C 55 % 1022,8 hPa 0,0 l/m 35,8 km/h (5 Bft) N-NW22.5 335 4 min 47,6 klux 326 W/m
22.04.2017 18:20 10,2 C 56 % 1022,8 hPa 0,0 l/m 38,8 km/h (6 Bft) N-NW22.5 330 0 min 14,5 klux 99 W/m
22.04.2017 18:25 10,4 C 57 % 1022,8 hPa 0,0 l/m 25,5 km/h (4 Bft) N-NW45 330 5 min 42,1 klux 288 W/m
22.04.2017 18:30 10,6 C 55 % 1022,8 hPa 0,0 l/m 23,4 km/h (4 Bft) NW22.5 325 5 min 39,9 klux 273 W/m
22.04.2017 18:35 10,3 C 55 % 1022,8 hPa 0,0 l/m 28,5 km/h (5 Bft) N-NW45 330 0 min 11,5 klux 79 W/m
22.04.2017 18:40 10,0 C 55 % 1022,8 hPa 0,0 l/m 34,4 km/h (5 Bft) N-NW22.5 330 5 min 34,1 klux 233 W/m
22.04.2017 18:45 10,3 C 55 % 1022,8 hPa 0,0 l/m 28,0 km/h (5 Bft) NW22.5 320 5 min 35,0 klux 239 W/m
22.04.2017 18:50 10,0 C 55 % 1022,8 hPa 0,0 l/m 32,6 km/h (5 Bft) NW22.5 325 0 min 12,3 klux 84 W/m
22.04.2017 18:55 9,9 C 53 % 1022,8 hPa 0,0 l/m 29,1 km/h (5 Bft) N-NW22.5 335 0 min 16,4 klux 112 W/m
22.04.2017 19:00 9,9 C 52 % 1022,8 hPa 0,0 l/m 27,8 km/h (5 Bft) N-NW22.5 335 0 min 18,8 klux 129 W/m
22.04.2017 19:05 9,5 C 52 % 1022,8 hPa 0,0 l/m 27,3 km/h (5 Bft) NW67.5 320 0 min 6,71 klux 46 W/m
22.04.2017 19:10 9,4 C 53 % 1022,8 hPa 0,0 l/m 29,0 km/h (5 Bft) N-NW22.5 330 0 min 5,94 klux 41 W/m
22.04.2017 19:14 9,2 C 54 % 1022,8 hPa 0,0 l/m 24,2 km/h (4 Bft) N-NW22.5 330 0 min 4,67 klux 32 W/m
22.04.2017 19:20 9,1 C 51 % 1022,8 hPa 0,0 l/m 36,7 km/h (5 Bft) N-NW22.5 330 0 min 4,73 klux 32 W/m
22.04.2017 19:25 9,0 C 52 % 1022,8 hPa 0,0 l/m 32,2 km/h (5 Bft) N-NW22.5 330 0 min 5,59 klux 38 W/m
22.04.2017 19:30 9,1 C 51 % 1022,8 hPa 0,0 l/m 36,8 km/h (5 Bft) N-NW45 340 0 min 5,72 klux 39 W/m
22.04.2017 19:35 9,2 C 52 % 1022,8 hPa 0,0 l/m 29,4 km/h (5 Bft) N-NW22.5 330 0 min 5,31 klux 36 W/m
22.04.2017 19:40 9,2 C 53 % 1022,8 hPa 0,0 l/m 26,6 km/h (4 Bft) NW22.5 325 5 min 16,0 klux 109 W/m
22.04.2017 19:45 9,2 C 52 % 1022,8 hPa 0,0 l/m 31,5 km/h (5 Bft) NW22.5 320 5 min 15,2 klux 104 W/m
22.04.2017 19:50 9,0 C 52 % 1022,8 hPa 0,0 l/m 30,3 km/h (5 Bft) NW22.5 315 0 min 3,79 klux 26 W/m
22.04.2017 19:55 8,8 C 53 % 1022,8 hPa 0,0 l/m 32,4 km/h (5 Bft) NW22.5 315 0 min 2,84 klux 19 W/m
22.04.2017 19:59 8,8 C 54 % 1022,8 hPa 0,0 l/m 26,8 km/h (4 Bft) NW22.5 320 0 min 2,34 klux 16 W/m
22.04.2017 20:05 8,6 C 57 % 1022,8 hPa 0,0 l/m 25,9 km/h (4 Bft) N-NW22.5 330 0 min 2,12 klux 15 W/m
22.04.2017 20:10 8,2 C 58 % 1022,8 hPa 0,0 l/m 19,0 km/h (3 Bft) NW22.5 320 0 min 2,08 klux 14 W/m
22.04.2017 20:15 8,1 C 58 % 1022,8 hPa 0,0 l/m 25,1 km/h (4 Bft) NW22.5 305 0 min 2,62 klux 18 W/m
22.04.2017 20:20 8,2 C 58 % 1022,8 hPa 0,0 l/m 18,4 km/h (3 Bft) NW45 310 0 min 1,09 klux 7 W/m
22.04.2017 20:25 8,2 C 58 % 1022,8 hPa 0,0 l/m 21,3 km/h (4 Bft) NW22.5 310 0 min 673 lux 5 W/m
22.04.2017 20:30 8,2 C 58 % 1022,8 hPa 0,0 l/m 20,5 km/h (4 Bft) NW22.5 315 0 min 437 lux 3 W/m
22.04.2017 20:35 8,2 C 58 % 1022,8 hPa 0,0 l/m 21,7 km/h (4 Bft) NW22.5 315 0 min 291 lux 2 W/m
22.04.2017 20:39 8,1 C 58 % 1022,8 hPa 0,0 l/m 25,5 km/h (4 Bft) NW22.5 315 0 min 211 lux 0 W/m
22.04.2017 20:45 8,2 C 58 % 1022,8 hPa 0,0 l/m 23,5 km/h (4 Bft) NW22.5 320 0 min 130 lux 0 W/m
22.04.2017 20:50 8,2 C 58 % 1022,8 hPa 0,0 l/m 28,8 km/h (5 Bft) N-NW22.5 340 0 min 64 lux 0 W/m
22.04.2017 20:55 8,2 C 60 % 1022,8 hPa 0,0 l/m 19,0 km/h (3 Bft) N-NW22.5 330 0 min 52 lux 0 W/m
22.04.2017 21:00 8,0 C 59 % 1022,8 hPa 0,0 l/m 30,0 km/h (5 Bft) N-NW22.5 335 0 min 31 lux 0 W/m
22.04.2017 21:05 8,0 C 59 % 1022,8 hPa 0,0 l/m 25,4 km/h (4 Bft) NW22.5 320 0 min 26 lux 0 W/m
22.04.2017 21:10 7,9 C 60 % 1022,8 hPa 0,0 l/m 25,0 km/h (4 Bft) N-NW22.5 335 0 min 9 lux 0 W/m
22.04.2017 21:15 7,7 C 60 % 1022,9 hPa 0,0 l/m 30,1 km/h (5 Bft) N-NW22.5 335 0 min 6 lux 0 W/m
22.04.2017 21:20 7,6 C 60 % 1022,9 hPa 0,0 l/m 23,5 km/h (4 Bft) N-NW22.5 330 0 min 2 lux 0 W/m
22.04.2017 21:25 7,4 C 62 % 1023,9 hPa 0,0 l/m 23,6 km/h (4 Bft) NW22.5 325 0 min 0 lux 0 W/m
22.04.2017 21:30 7,3 C 62 % 1023,9 hPa 0,0 l/m 25,8 km/h (4 Bft) NW22.5 325 0 min 0 lux 0 W/m
22.04.2017 21:35 7,2 C 62 % 1023,9 hPa 0,0 l/m 26,5 km/h (4 Bft) N-NW22.5 330 0 min 0 lux 0 W/m
22.04.2017 21:40 7,2 C 62 % 1023,9 hPa 0,0 l/m 17,3 km/h (3 Bft) NW22.5 325 0 min 0 lux 0 W/m
22.04.2017 21:45 7,2 C 62 % 1023,9 hPa 0,0 l/m 27,0 km/h (5 Bft) N-NW22.5 330 0 min 0 lux 0 W/m
22.04.2017 21:50 7,2 C 63 % 1023,9 hPa 0,0 l/m 19,9 km/h (4 Bft) N-NW22.5 330 0 min 0 lux 0 W/m
22.04.2017 21:55 7,2 C 63 % 1023,9 hPa 0,0 l/m 18,5 km/h (3 Bft) N-NW45 330 0 min 0 lux 0 W/m
22.04.2017 22:00 7,0 C 64 % 1023,9 hPa 0,0 l/m 21,1 km/h (4 Bft) NW22.5 320 0 min 0 lux 0 W/m
22.04.2017 22:05 7,1 C 63 % 1023,9 hPa 0,0 l/m 22,6 km/h (4 Bft) N-NW22.5 330 0 min 0 lux 0 W/m
22.04.2017 22:10 7,1 C 63 % 1023,9 hPa 0,0 l/m 22,9 km/h (4 Bft) NW22.5 325 0 min 0 lux 0 W/m
22.04.2017 22:15 7,0 C 64 % 1023,9 hPa 0,0 l/m 17,5 km/h (3 Bft) NW22.5 325 0 min 0 lux 0 W/m
22.04.2017 22:19 7,2 C 63 % 1023,9 hPa 0,0 l/m 26,5 km/h (4 Bft) NW22.5 325 0 min 0 lux 0 W/m
22.04.2017 22:25 7,1 C 63 % 1023,9 hPa 0,0 l/m 26,0 km/h (4 Bft) N-NW22.5 340 0 min 0 lux 0 W/m
22.04.2017 22:30 7,0 C 64 % 1023,9 hPa 0,0 l/m 20,3 km/h (4 Bft) N-NW67.5 340 0 min 0 lux 0 W/m
22.04.2017 22:35 6,8 C 65 % 1023,9 hPa 0,0 l/m 17,3 km/h (3 Bft) NW22.5 320 0 min 0 lux 0 W/m
22.04.2017 22:40 6,6 C 66 % 1023,9 hPa 0,0 l/m 17,0 km/h (3 Bft) N-NW22.5 330 0 min 0 lux 0 W/m
22.04.2017 22:45 6,5 C 66 % 1023,9 hPa 0,0 l/m 15,4 km/h (3 Bft) NW22.5 315 0 min 0 lux 0 W/m
22.04.2017 22:50 6,5 C 67 % 1023,9 hPa 0,0 l/m 14,9 km/h (3 Bft) NW22.5 325 0 min 0 lux 0 W/m
22.04.2017 22:55 6,4 C 67 % 1023,9 hPa 0,0 l/m 14,6 km/h (3 Bft) NW22.5 320 0 min 0 lux 0 W/m
22.04.2017 23:00 6,5 C 67 % 1023,9 hPa 0,0 l/m 16,2 km/h (3 Bft) N-NW45 330 0 min 0 lux 0 W/m
22.04.2017 23:05 6,5 C 66 % 1023,9 hPa 0,0 l/m 23,3 km/h (4 Bft) N-NW22.5 330 0 min 0 lux 0 W/m
22.04.2017 23:10 6,5 C 66 % 1023,9 hPa 0,0 l/m 18,9 km/h (3 Bft) NW22.5 320 0 min 0 lux 0 W/m
22.04.2017 23:15 6,4 C 66 % 1023,9 hPa 0,0 l/m 17,1 km/h (3 Bft) NW22.5 320 0 min 0 lux 0 W/m
22.04.2017 23:20 6,0 C 68 % 1023,9 hPa 0,0 l/m 16,8 km/h (3 Bft) NW22.5 310 0 min 0 lux 0 W/m
22.04.2017 23:25 6,1 C 68 % 1023,9 hPa 0,0 l/m 19,8 km/h (3 Bft) N-NW22.5 330 0 min 0 lux 0 W/m
22.04.2017 23:30 6,1 C 68 % 1023,9 hPa 0,0 l/m 21,1 km/h (4 Bft) N-NW45 330 0 min 0 lux 0 W/m
22.04.2017 23:35 6,2 C 68 % 1023,9 hPa 0,0 l/m 12,1 km/h (2 Bft) NW22.5 325 0 min 0 lux 0 W/m
22.04.2017 23:40 6,2 C 68 % 1023,9 hPa 0,0 l/m 15,6 km/h (3 Bft) NW22.5 325 0 min 0 lux 0 W/m
22.04.2017 23:45 6,1 C 68 % 1023,9 hPa 0,0 l/m 15,3 km/h (3 Bft) NW22.5 325 0 min 0 lux 0 W/m
22.04.2017 23:50 6,1 C 69 % 1023,9 hPa 0,0 l/m 10,6 km/h (2 Bft) NW22.5 315 0 min 0 lux 0 W/m
22.04.2017 23:55 6,1 C 68 % 1023,9 hPa 0,0 l/m 14,1 km/h (3 Bft) NW22.5 320 0 min 0 lux 0 W/m
_ Min-Zeit 06:40 19:20 04:40 - 06:40 - - - - -
Minimum _ 5,8 C 51 % 1021,8 hPa - 1,7 km/h (1 Bft) - - - - -
_ Max-Zeit 13:50 07:15 11:50 04:00 11:35 - - 10:30 15:10 15:10
Maximum _ 11,2 C 86 % 1024,9 hPa 0,1 l/m 45,6 km/h
N (6 Bft)
- - 6 min 110 klux 752 W/m
Durchschnitt _ 8,7 C 70 % 1023,6 hPa #1,3 l/m 21,3 km/h (4 Bft) N-NW - #2:15 h 15,5 klux 179 W/m